Flag for Colombia Weather past 2 weeks in Cartagena, Colombia

Now
88 °F

Passing clouds.


Feels Like: 102 °F
Forecast: N/A
Wind: 18 mph from Northeast

Location: Cartagena / Rafael Nunez

Current Time: Jul 1, 2015 at 4:40:26 PM

Latest Report: Jul 1, 2015 at 4:00 PM


Visibility: N/A

Pressure: 29.70 "Hg

Humidity: 75%

Dew point: 79 °F

Location of CartagenaLocation

Historic Weather in Cartagena — Graph

°F

Cartagena temperature yesterday

Maximum temperature yesterday: 90 °F (at 11:00 AM)
Minimum temperature yesterday: 79 °F (at 4:00 AM)
Average temperature yesterday: 84 °F

Past Weeks' High & Low Weather Summary

 TemperatureHumidityPressure
High104 °F (Jun 24, 1:00 PM)100% (Jun 18, 6:00 AM)29.86 "Hg (Jun 18, 6:00 AM)
Low77 °F (Jul 1, 5:00 AM)33% (Jun 24, 1:00 PM)29.29 "Hg (Jun 18, 7:00 PM)
Average85 °F79%29.76 "Hg
* Reported Jun 16 3:00 PM — Jul 1 3:00 PM, Cartagena, Weather by CustomWeather, © 2015

Note: Actual official high and low records may vary slightly from our data, if they occured in-between our weather recording intervals... More about our weather records

Advertising

Cartagena weather history for previous 24 hours

 ConditionsComfort  
Time TempWeatherWind HumidityBarometerVisibility
3:00 PM
Wed, Jul 1
91 °FPassing clouds.12 mph63%29.71 "HgN/A
2:00 PM90 °FPassing clouds.16 mph71%29.73 "HgN/A
1:00 PM88 °FPassing clouds.17 mph70%29.76 "HgN/A
12:00 PM90 °FPassing clouds.12 mph71%29.78 "HgN/A
11:00 AM90 °FScattered clouds.12 mph67%29.81 "HgN/A
10:00 AM91 °FSunny.8 mph63%29.82 "Hg10 mi
9:00 AM90 °FSunny.No wind59%29.83 "Hg10 mi
8:00 AM84 °FSunny.3 mph74%29.82 "Hg10 mi
7:00 AM81 °FSunny.2 mph89%29.81 "Hg10 mi
6:00 AM77 °FSunny.No wind94%29.80 "Hg10 mi
5:00 AM77 °FClear.No wind94%29.78 "Hg10 mi
4:00 AM79 °FClear.No wind89%29.77 "Hg10 mi
3:00 AM79 °FClear.No wind89%29.77 "Hg10 mi
2:00 AM81 °FClear.5 mph84%29.78 "Hg10 mi
1:00 AM81 °FClear.No wind84%29.81 "Hg10 mi
12:00 AM82 °FClear.5 mph84%29.83 "Hg10 mi
11:00 PM
Tue, Jun 30
82 °FPassing clouds.5 mph84%29.84 "HgN/A
10:00 PM84 °FPassing clouds.9 mph79%29.84 "HgN/A
9:00 PM84 °FPassing clouds.5 mph74%29.78 "HgN/A
8:00 PM82 °FPassing clouds.7 mph79%29.82 "HgN/A
7:00 PM82 °FPassing clouds.9 mph79%29.78 "HgN/A
6:00 PM84 °FPartly sunny.10 mph74%29.78 "HgN/A
5:00 PM86 °FPartly sunny.13 mph70%29.78 "HgN/A
4:00 PM86 °FPartly sunny.7 mph70%29.78 "HgN/A
Weather by CustomWeather, © 2015

See weather overviewHow to use our weather pages